Weather History for Hurghada, Egypt

Change the Weather History Date:

Thursday, September 6, 2012

  Actual Average Record
Temperature  
Mean Temperature 89 °F -  
Max Temperature 96 °F 90 °F 102 °F (2001)
Min Temperature 82 °F 76 °F 75 °F (2003)
Cooling Degree Days 24    
Growing Degree Days 39 (Base 50)    
Moisture  
Dew Point 66 °F    
Average Humidity 45    
Maximum Humidity 58    
Minimum Humidity 27    
Precipitation  
Precipitation 0.00 in - - ()
Sea Level Pressure  
Sea Level Pressure 29.72 in    
Wind  
Wind Speed 13 mph ()    
Max Wind Speed 24 mph    
Max Gust Speed -    
Visibility 6.0 miles    
Events      
Averages and records for this station are not official NWS values.
T = Trace of Precipitation, MM = Missing Value Source: Averaged Metar Reports

Daily Weather History Graph

Daily Weather History Graph

Search for Another Location

Airport:

Trip Planner

Search our weather history database for the weather conditions in past years. The results will help you decide how hot, cold, wet, or windy it might be!

Date:

Astronomy

Sep. 06, 2012 Rise Set
Actual Time 5:26 AM EET 5:59 PM EET
Civil Twilight 5:02 AM EET 6:22 PM EET
Nautical Twilight 4:35 AM EET 6:50 PM EET
Astronomical Twilight 4:07 AM EET 7:18 PM EET
Moon 9:32 PM EET (9/6) 10:31 AM EET (9/6)
Length of Visible Light 13h 20m
Length of Day
12h 33m
Waning Gibbous, 70% of the Moon is Illuminated
Sep 6
Waning Gibbous
Sep 8
Last Quarter
Sep 16
New
Sep 22
First Quarter
Sep 30
Full

Hourly Weather History & Observations

Time (EET) Temp. Heat Index Dew Point Humidity Pressure Visibility Wind Dir Wind Speed Gust Speed Precip Events Conditions
12:00 AM 86.0 °F 88.2 °F 66.2 °F 51% 29.74 in - NW 10.4 mph - N/A   Clear
1:00 AM 86.0 °F 88.2 °F 66.2 °F 51% 29.71 in - WNW 12.7 mph - N/A   Clear
2:00 AM 86 °F - 63 °F 36% 29.73 in 6 mi WNW 15.0 mph - -  
2:00 AM 86.0 °F 86.6 °F 62.6 °F 45% 29.71 in - WNW 15.0 mph - N/A   Clear
3:00 AM 84.2 °F 86.6 °F 66.2 °F 55% 29.71 in - NW 12.7 mph - N/A   Clear
4:00 AM 82.4 °F 84.6 °F 66.2 °F 58% 29.74 in - North 6.9 mph - N/A   Clear
5:00 AM 84.2 °F 86.6 °F 66.2 °F 55% 29.74 in - North 16.1 mph - N/A   Clear
6:00 AM 82.4 °F 83.9 °F 64.4 °F 54% 29.74 in - NNW 10.4 mph - N/A   Clear
7:00 AM 84.2 °F 85.0 °F 62.6 °F 48% 29.74 in - NNW 8.1 mph - N/A   Clear
8:00 AM 88 °F - 66 °F 39% 29.77 in 6 mi North 21.9 mph - -  
8:00 AM 87.8 °F 90.4 °F 66.2 °F 49% 29.77 in - North 21.9 mph - N/A   Clear
9:00 AM 89.6 °F 94.7 °F 69.8 °F 52% 29.77 in - North 20.7 mph - N/A   Clear
10:00 AM 91.4 °F 96.8 °F 69.8 °F 49% 29.77 in - North 24.2 mph - N/A   Clear
11:00 AM 93.2 °F 98.8 °F 69.8 °F 46% 29.74 in - NNW 21.9 mph - N/A   Clear
12:00 PM 93.2 °F 102.4 °F 73.4 °F 52% 29.71 in - North 18.4 mph - N/A   Clear
1:00 PM 95.0 °F 101.3 °F 69.8 °F 44% 29.71 in - North 20.7 mph - N/A   Clear
2:00 PM 95 °F - 70 °F 34% 29.70 in 6 mi North 20.7 mph - -  
2:00 PM 95.0 °F 101.3 °F 69.8 °F 44% 29.68 in - North 20.7 mph - N/A   Clear
3:00 PM 96.8 °F 105.1 °F 71.6 °F 44% 29.68 in - North 17.3 mph - N/A   Clear
4:00 PM 93.2 °F 98.8 °F 69.8 °F 46% 29.68 in - NNE 11.5 mph - N/A   Clear
5:00 PM 93.2 °F 98.8 °F 69.8 °F 46% 29.68 in - North 13.8 mph - N/A   Clear
6:00 PM 91.4 °F 98.4 °F 71.6 °F 52% 29.68 in - North 12.7 mph - N/A   Clear
7:00 PM 93.2 °F 94.9 °F 64.4 °F 38% 29.68 in - North 12.7 mph - N/A   Clear
8:00 PM 93 °F - 63 °F 27% 29.72 in 6 mi North 11.5 mph - -  
8:00 PM 93.2 °F 94.1 °F 62.6 °F 36% 29.71 in - North 11.5 mph - N/A   Clear
9:00 PM 91.4 °F 91.4 °F 60.8 °F 36% 29.71 in - NNW 6.9 mph - N/A   Clear
10:00 PM 91.4 °F 89.9 °F 57.2 °F 31% 29.68 in - WNW 17.3 mph - N/A   Clear
11:00 PM 89.6 °F 88.9 °F 59.0 °F 36% 29.71 in - WNW 13.8 mph - N/A   Clear